Location: Pardubice
(50.0333°N, 15.7833°E)
Time: 10:45:33
(UTC+01:00)

ISS - Visible Passes

Search period start: 25 November 2017 00:00
Search period end: 05 December 2017 00:00
Orbit: 401 x 407 km, 51.6° (Epoch: 25 November)

Date Brightness Start Highest point End Pass type
(mag) Time Alt. Az. Time Alt. Az. Time Alt. Az.
28 Nov -1.7 18:16:18 10° SSW 18:17:44 19° S 18:17:44 19° S visible
29 Nov -1.8 17:24:46 10° S 17:26:51 16° SE 17:27:37 15° ESE visible
29 Nov -0.8 18:59:37 10° WSW 19:00:16 15° WSW 19:00:16 15° WSW visible
30 Nov -3.0 18:07:22 10° SW 18:10:04 41° S 18:10:04 41° S visible
01 Dec -2.5 17:15:19 10° SSW 17:18:12 29° SSE 17:19:49 19° E visible
01 Dec -1.3 18:51:10 10° WSW 18:52:28 22° WSW 18:52:28 22° WSW visible
02 Dec -3.9 17:58:45 10° WSW 18:02:01 74° SSE 18:02:09 73° SE visible
03 Dec -3.4 17:06:25 10° SW 17:09:37 51° SSE 17:11:47 18° E visible
03 Dec -1.6 18:42:48 10° W 18:44:26 26° W 18:44:26 26° W visible
04 Dec -3.9 17:50:16 10° W 17:53:33 78° NNW 17:54:02 61° NE visible
